Regional Weather Roundup
Issued by NWS Cleveland, OH

Home | Current Version | Previous Version | Graphics & Text | Print | Product List | Glossary On
Versions: 1 2 3 4 5 6 7 8 9 10 11 12 13 14 15 16 17 18 19 20 21 22 23 24 25 26 27 28 29 30 31 32 33 34 35 36 37 38 39 40 41 42 43 44 45 46 47 48 49 50
389
ASUS41 KCLE 271410
RWRCLE
OHIO REGIONAL WEATHER ROUNDUP
NATIONAL WEATHER SERVICE WILMINGTON, OH
1000 AM EDT TUE JUN 27 2017

NOTE: "FAIR" INDICATES FEW OR NO CLOUDS BELOW 12,000 FEET WITH NO
SIGNIFICANT WEATHER AND/OR OBSTRUCTIONS TO VISIBILITY.

OHZ001>008-015>018-024>027-034-035-043-044-271500-
   NORTHWEST OHIO

CITY           SKY/WX    TMP DP  RH WIND       PRES   REMARKS
DEFIANCE       FAIR      61  47  59 NW7       30.13S
FINDLAY        FAIR      61  50  67 W7        30.12R
TOLEDO EXPRESS FAIR      61  47  59 NW6       30.11R
TOLEDO EXEC    FAIR      62  47  57 NW8       30.12R
LIMA           FAIR      59  51  75 N8        30.14R
$$

OHZ009>014-019>023-028>033-038-089-271500-
   NORTHEAST OHIO

CITY           SKY/WX    TMP DP  RH WIND       PRES   REMARKS
CLE-HOPKINS    CLOUDY    61  52  72 W15       30.09R
CLE-LAKEFRONT  PTSUNNY   60  51  72 W18G26    30.06R
CUY CO. ARPT   CLOUDY    59  52  77 NW14      30.06R
LORAIN-ELYRIA  CLOUDY    57  46  66 W12G20    30.09R
ASHTABULA      CLOUDY    58  51  78 W12       30.05R
AKRON-CANTON   FAIR      62  48  60 W13       30.08S
WOOSTER        FAIR      60  49  66 NW15G22   30.10R
MANSFIELD      PTSUNNY   58  49  72 W9G17     30.11S
YOUNGSTOWN     PTSUNNY   60  49  66 W10       30.06S
$$

OHZ042-051>053-060>062-070>072-077>081-271500-
  SOUTHWEST OHIO

CITY           SKY/WX    TMP DP  RH WIND       PRES   REMARKS
CINC-COVINGTON FAIR      64  48  56 N6        30.16R
CINC-LUNKEN    FAIR      66  52  60 VRB6      30.17R
HAMILTON       FAIR      65  53  65 VRB5      30.17R
DAYTON         FAIR      62  49  62 NW13      30.16R
WRIGHT-PAT AFB FAIR      62  51  68 NW12      30.15R
DAYTON GENERAL FAIR      62  49  62 NW7       30.15R
WILMINGTON     FAIR      63  50  62 NW8       30.15R
$$

OHZ036-037-039>041-045>050-054>059-063>069-073>076-082>088-271500-
  CENTRAL AND SOUTHEAST OHIO

CITY           SKY/WX    TMP DP  RH WIND       PRES   REMARKS
COLUMBUS       PTSUNNY   63  50  62 NW9       30.13R
OSU AIRPORT    PTSUNNY   62  51  67 NW12      30.13S
BOLTON FIELD   MOSUNNY   55  50  82 NW12      30.15R
RICKENBACK AFB FAIR      61  49  64 N10       30.14R
NEWARK         PTSUNNY   63  48  58 NW8       30.13R
MARION         PTSUNNY   60  48  64 NW10      30.13R
LANCASTER      PTSUNNY   61  51  70 W5        30.15R
ZANESVILLE     FAIR      61  49  64 W10       30.13R
NEW PHILLY     FAIR      62  48  60 W8        30.10S
$$




USA.gov is the U.S. government's official web portal to all federal, state and local government web resources and services.